Location: ??????
(41.3794°N, 22.5014°E)
Time: 07:19:13
(UTC+00:00)

CZ-2C R/B - Pass Details

Date: 30 November 2020
Orbit: 705 x 907 km, 98.1° (Epoch: 17 January)

Event Time Altitude Azimuth Distance (km) Brightness Sun altitude
Rises 17:36:43 0° 182° (S) 3,258 6.3 -28.5°
Reaches altitude 10° 17:39:11 10° 189° (S) 2,303 5.6 -29.0°
Maximum altitude 17:43:59 44° 261° (W) 1,026 4.0 -29.9°
Drops below altitude 10° 17:48:38 10° 334° (NNW) 2,221 5.6 -30.7°
Sets 17:50:58 0° 341° (NNW) 3,129 6.4 -31.2°
